Regional Weather Roundup
Issued by NWS

Home | Current Version | Previous Version | Text Only | Print | Product List | Glossary On
Versions: 1 2 3 4 5 6 7 8 9 10 11 12 13 14 15 16 17 18 19 20 21 22 23 24 25 26 27
000
ASUS44 KJAN 260410
RWRMS

MISSISSIPPI HOURLY WEATHER ROUNDUP
NATIONAL WEATHER SERVICE JACKSON MS
1100 PM CDT TUE JUL 25 2017

NOTE: "FAIR: INDICATES FEW OR NO CLOUDS BELOW 12,000 FEET WITH NO
SIGNIFICANT WEATHER AND/OR OBSTRUCTIONS TO VISIBILITY.

MSZ001>002-007>008-010>013-018>021-025>028-034>036-260500-
NORTHWEST MISSISSIPPI

CITY           SKY/WX    TMP DP  RH WIND       PRES   REMARKS
BATESVILLE     FAIR      76  73  91 CALM      30.09R
CLARKSDALE       N/A     81  81 100 S6        30.07S HX  91
CLEVELAND      FAIR      79  79 100 S3        30.07S
GREENWOOD      CLEAR     76  74  93 S5        30.08S
GREENVILLE     CLEAR     76  72  87 S7        30.07R
OXFORD         FAIR      75  73  94 CALM      30.11R
TUNICA           N/A     77  73  88 CALM      30.07R
WINONA         FAIR      74  74 100 S3        30.10S FOG
$$

MSZ003>006-009-014>017-022>024-029>033-037>039-260500-
NORTHEAST MISSISSIPPI

CITY           SKY/WX    TMP DP  RH WIND       PRES   REMARKS
COLUMBUS AFB   NOT AVBL
CORINTH        FAIR      77  73  88 CALM      30.09R
GOLDN TRIANGLE CLOUDY    79  72  78 MISG      30.06R
STARKVILLE     FAIR      77  73  88 CALM      30.11R FOG
TUPELO         CLEAR     81  73  76 CALM      30.09R
$$

MSZ040-058-260500-
CENTRAL MISSISSIPPI

CITY           SKY/WX    TMP DP  RH WIND       PRES   REMARKS
JACKSON INTL   PTCLDY    74  73  97 CALM      30.11R
JACKSON HAWKNS CLEAR     74  73  97 CALM      30.11R
MADISON        FAIR      72  70  94 CALM      30.10S
MERIDIAN KEY   CLEAR     78  76  93 S3        30.11R
MERIDIAN NAS   MOCLDY    77  71  82 CALM      30.11R
RAYMOND        FAIR      73  72  94 CALM      30.10S
$$

MSZ059>079-260500-
SOUTH MISSISSIPPI

CITY           SKY/WX    TMP DP  RH WIND       PRES   REMARKS
COLUMBIA       FAIR      73  73 100 CALM      30.14S
HATTIESBURG    CLEAR     76  75  97 W3        30.12R
LAUREL         FAIR      74  74 100 CALM      30.11S
MCCOMB         PTCLDY    73  72  96 CALM      30.13R FOG
NATCHEZ        CLEAR     76  74  93 SE5       30.12R
PINE BELT      CLEAR     74  73  97 CALM      30.13R
$$

MSZ080>082-260500-
COASTAL MISSISSIPPI

CITY           SKY/WX    TMP DP  RH WIND       PRES   REMARKS
BILOXI         MOCLDY    77  74  92 CALM      30.11R
PASCAGOULA     CLEAR     74  72  93 CALM      30.12R
GULFPORT       CLEAR     77  75  93 CALM      30.10S
$$

LAZ007>009-015>016-023>026-260500-
NORTHEAST LOUISIANA

CITY           SKY/WX    TMP DP  RH WIND       PRES   REMARKS
BASTROP          N/A     77  76  98 CALM      30.09S
TALLULAH/VBURG PTCLDY    74  73  97 CALM      30.09S
VIDALIA        FAIR      77  76  97 CALM      30.10R
$$




USA.gov is the U.S. government's official web portal to all federal, state and local government web resources and services.